Temp
-12 -12 -12 -13 -13 -13 -13 -13 -13 -13 -13 -13 -13 -13 -13 -13 -13 -13 -13 -13 -13 -13 -13 -13 -13 -13 -13 -13 -13 -13 -12 -12 -12 -12 -12 -12 -12 -13 -13 -13 -12 -12
-12 -12 -13 -13 -13 -13 -13 -13 -13 -13 -13 -14 -14 -14 -13 -13 -13 -13 -13 -13 -13 -13 -13 -13 -13 -13 -13 -14 -13 -13 -13 -13 -12 -12 -12 -12 -12 -12 -13 -13 -13 -12
-13 -13 -13 -13 -13 -13 -13 -14 -14 -14 -14 -14 -14 -14 -14 -14 -14 -14 -14 -14 -14 -14 -14 -14 -14 -14 -14 -14 -14 -13 -13 -13 -13 -13 -12 -12 -12 -12 -12 -13 -13 -13
-13 -13 -13 -14 -14 -14 -14 -14 -14 -14 -14 -14 -14 -14 -14 -14 -14 -14 -14 -14 -14 -14 -14 -14 -14 -14 -14 -14 -14 -14 -14 -14 -13 -13 -13 -13 -13 -13 -12 -12 -13 -13
-14 -14 -14 -14 -14 -14 -14 -14 -14 -14 -14 -14 -14 -14 -14 -14 -14 -14 -14 -14 -14 -14 -14 -14 -14 -14 -14 -14 -14 -14 -14 -14 -14 -14 -14 -14 -13 -13 -13 -13 -13 -13
-14 -14 -14 -14 -14 -14 -14 -14 -14 -14 -14 -14 -14 -14 -14 -14 -15 -15 -15 -15 -14 -14 -15 -15 -15 -15 -15 -15 -15 -15 -14 -14 -14 -14 -14 -14 -14 -14 -14 -13 -13 -13
-14 -14 -14 -14 -14 -14 -14 -14 -14 -14 -15 -14 -14 -14 -15 -15 -15 -15 -14 -14 -15 -15 -15 -15 -15 -15 -15 -15 -15 -15 -15 -15 -15 -15 -14 -14 -14 -14 -14 -14 -14 -13
-14 -15 -15 -15 -15 -15 -15 -15 -15 -15 -15 -15 -15 -15 -15 -15 -15 -14 -15 -15 -15 -15 -15 -15 -15 -15 -15 -15 -15 -15 -15 -15 -15 -15 -15 -15 -15 -14 -14 -14 -14 -14
-15 -15 -15 -15 -15 -15 -15 -15 -15 -15 -15 -15 -15 -15 -15 -15 -15 -15 -15 -15 -15 -15 -15 -15 -15 -15 -15 -15 -16 -16 -16 -16 -15 -15 -15 -15 -15 -15 -14 -14 -14 -14
-15 -15 -15 -15 -15 -15 -15 -15 -15 -15 -15 -15 -15 -15 -15 -15 -15 -15 -15 -15 -15 -15 -15 -16 -16 -16 -16 -16 -16 -16 -16 -16 -16 -16 -15 -15 -15 -15 -15 -14 -14 -14
-15 -15 -15 -15 -15 -15 -15 -15 -15 -15 -15 -15 -15 -15 -15 -15 -15 -15 -15 -15 -15 -16 -16 -16 -16 -16 -16 -16 -16 -16 -16 -16 -16 -16 -16 -16 -15 -15 -15 -15 -15 -15
-15 -16 -15 -15 -15 -15 -15 -15 -15 -16 -15 -15 -15 -15 -15 -16 -16 -16 -16 -16 -16 -16 -16 -16 -16 -16 -16 -16 -16 -16 -16 -16 -16 -16 -16 -16 -16 -16 -16 -16 -16 -16
-16 -16 -16 -16 -16 -16 -16 -16 -16 -16 -15 -15 -15 -16 -16 -16 -16 -16 -16 -16 -16 -16 -16 -16 -16 -16 -16 -16 -17 -17 -17 -16 -16 -16 -16 -16 -16 -17 -17 -17 -17 -16
-16 -16 -16 -16 -16 -16 -16 -16 -16 -16 -16 -16 -16 -16 -16 -16 -16 -16 -16 -16 -16 -16 -16 -16 -16 -16 -17 -17 -17 -17 -17 -17 -17 -17 -17 -17 -17 -17 -17 -17 -17 -17
-16 -16 -16 -16 -16 -16 -16 -16 -16 -16 -16 -16 -16 -17 -17 -17 -16 -16 -16 -16 -16 -16 -16 -17 -17 -17 -17 -17 -17 -17 -17 -17 -17 -17 -17 -17 -17 -18 -18 -18 -18 -18
-16 -16 -16 -16 -16 -16 -16 -16 -16 -16 -16 -16 -17 -17 -17 -17 -17 -17 -17 -17 -17 -17 -17 -17 -17 -17 -17 -17 -17 -17 -17 -17 -17 -18 -18 -18 -18 -18 -19 -19 -19 -19
-16 -16 -16 -16 -16 -16 -16 -16 -16 -16 -16 -17 -17 -17 -17 -17 -17 -17 -17 -17 -17 -17 -17 -17 -17 -17 -17 -17 -17 -17 -18 -18 -18 -18 -19 -19 -19 -19 -19 -19 -19 -20
-16 -16 -17 -17 -17 -16 -16 -16 -16 -17 -17 -17 -17 -17 -17 -17 -17 -17 -17 -17 -17 -17 -17 -17 -17 -17 -17 -17 -17 -18 -18 -19 -19 -19 -19 -20 -20 -20 -20 -20 -20 -20
-17 -17 -17 -17 -17 -17 -17 -17 -17 -17 -17 -17 -17 -17 -17 -17 -17 -17 -17 -17 -18 -17 -17 -17 -17 -17 -17 -17 -18 -18 -19 -19 -20 -20 -20 -20 -20 -20 -20 -20 -20 -20
-17 -17 -17 -17 -17 -17 -17 -17 -17 -17 -17 -17 -17 -17 -17 -17 -17 -18 -18 -18 -17 -17 -17 -17 -17 -17 -17 -18 -19 -19 -20 -20 -20 -20 -20 -20 -20 -20 -20 -20 -20 -20
-17 -17 -17 -17 -17 -17 -17 -17 -17 -17 -17 -17 -17 -17 -17 -17 -18 -18 -18 -17 -17 -17 -17 -17 -17 -18 -18 -19 -19 -20 -20 -20 -20 -20 -20 -20 -20 -20 -20 -20 -20 -21
-18 -18 -18 -18 -17 -17 -17 -17 -17 -17 -17 -17 -17 -18 -18 -18 -18 -17 -17 -17 -17 -17 -17 -17 -18 -18 -19 -19 -20 -20 -20 -20 -20 -20 -20 -20 -20 -20 -20 -20 -20 -20
-18 -18 -18 -17 -17 -17 -17 -17 -17 -17 -17 -18 -18 -18 -18 -17 -17 -17 -17 -17 -17 -17 -18 -18 -19 -19 -20 -20 -20 -20 -20 -20 -20 -20 -20 -20 -19 -19 -19 -19 -20 -20
-18 -18 -18 -17 -17 -17 -17 -17 -17 -18 -18 -18 -18 -18 -18 -17 -17 -18 -18 -18 -18 -18 -19 -19 -19 -20 -20 -20 -20 -20 -20 -20 -20 -20 -19 -19 -19 -19 -19 -19 -19 -19
-18 -18 -18 -17 -17 -17 -17 -18 -18 -18 -18 -18 -18 -18 -18 -18 -18 -18 -18 -18 -19 -19 -19 -19 -20 -20 -20 -20 -20 -20 -20 -20 -20 -19 -19 -19 -19 -19 -19 -19 -19 -19
-18 -18 -18 -18 -18 -18 -18 -18 -18 -18 -18 -18 -18 -18 -18 -18 -18 -18 -19 -19 -19 -20 -20 -20 -20 -20 -20 -20 -20 -20 -20 -20 -20 -19 -19 -19 -19 -19 -19 -19 -19 -19
Height
5790 5788 5787 5786 5785 5784 5783 5782 5780 5779 5778 5777 5775 5774 5772 5771 5769 5768 5767 5766 5765 5763 5762 5761 5760 5759 5758 5758 5757 5756 5755 5755 5755 5754 5754 5754 5754 5753 5752 5752 5751 5751
5784 5783 5782 5781 5779 5778 5777 5776 5775 5774 5772 5771 5769 5768 5766 5764 5763 5762 5760 5759 5758 5757 5756 5754 5753 5753 5752 5751 5749 5748 5748 5747 5746 5746 5746 5746 5746 5745 5745 5745 5744 5744
5779 5778 5777 5776 5774 5773 5772 5770 5769 5768 5766 5764 5763 5761 5759 5758 5757 5755 5754 5753 5752 5750 5749 5748 5747 5746 5745 5743 5742 5741 5741 5740 5739 5738 5738 5738 5738 5737 5737 5737 5737 5737
5773 5772 5771 5770 5769 5767 5766 5764 5763 5761 5759 5757 5756 5754 5752 5751 5750 5749 5748 5746 5745 5744 5743 5742 5740 5739 5738 5736 5735 5734 5733 5732 5732 5731 5730 5731 5730 5729 5729 5729 5730 5730
5767 5766 5765 5764 5762 5761 5759 5758 5756 5754 5752 5750 5748 5747 5745 5744 5744 5743 5741 5740 5739 5737 5736 5735 5733 5732 5730 5729 5728 5727 5725 5724 5724 5723 5723 5723 5723 5722 5721 5721 5721 5722
5761 5759 5758 5757 5755 5754 5753 5751 5749 5746 5744 5743 5742 5740 5739 5738 5737 5736 5734 5733 5732 5730 5728 5727 5725 5724 5722 5721 5720 5719 5717 5716 5715 5715 5714 5714 5714 5714 5713 5713 5713 5714
5754 5753 5751 5750 5749 5747 5746 5744 5742 5740 5738 5737 5736 5734 5733 5732 5730 5729 5727 5726 5724 5722 5720 5718 5717 5716 5714 5712 5711 5710 5709 5708 5707 5706 5706 5706 5705 5705 5704 5704 5704 5705
5747 5746 5745 5743 5742 5740 5738 5736 5734 5733 5732 5731 5729 5728 5726 5725 5723 5721 5719 5718 5716 5714 5712 5710 5709 5707 5705 5703 5702 5701 5700 5699 5698 5697 5696 5696 5696 5696 5695 5695 5695 5695
5740 5739 5737 5735 5734 5732 5730 5728 5727 5726 5725 5723 5722 5720 5719 5717 5715 5714 5712 5710 5708 5706 5704 5702 5700 5698 5696 5695 5693 5692 5691 5689 5688 5687 5687 5687 5686 5686 5685 5685 5685 5685
5732 5730 5728 5726 5725 5724 5722 5720 5719 5718 5717 5715 5714 5713 5711 5709 5707 5706 5704 5702 5700 5698 5695 5693 5691 5689 5687 5686 5684 5683 5681 5680 5679 5677 5677 5676 5676 5676 5675 5674 5674 5674
5722 5721 5720 5719 5717 5716 5714 5712 5711 5710 5709 5707 5706 5704 5703 5701 5700 5698 5696 5694 5692 5689 5687 5685 5682 5680 5678 5677 5675 5673 5671 5670 5669 5667 5666 5665 5665 5664 5664 5663 5663 5663
5715 5714 5713 5712 5710 5708 5706 5705 5703 5702 5701 5699 5697 5695 5694 5693 5691 5690 5687 5685 5683 5681 5678 5676 5673 5671 5670 5668 5665 5663 5662 5660 5659 5657 5656 5655 5654 5653 5652 5652 5651 5651
5708 5707 5706 5704 5701 5699 5698 5696 5694 5693 5691 5689 5687 5686 5685 5684 5682 5680 5678 5676 5674 5672 5669 5667 5665 5663 5661 5658 5656 5654 5652 5650 5648 5647 5645 5644 5643 5642 5641 5641 5640 5640
5700 5699 5697 5695 5692 5690 5688 5687 5686 5684 5682 5680 5679 5677 5676 5675 5673 5671 5669 5667 5665 5663 5661 5658 5656 5654 5651 5649 5647 5645 5642 5640 5638 5636 5634 5633 5632 5631 5630 5630 5629 5629
5692 5690 5687 5685 5682 5681 5680 5679 5677 5675 5673 5672 5671 5669 5667 5665 5663 5662 5660 5658 5656 5654 5652 5650 5647 5645 5642 5639 5637 5634 5632 5629 5627 5625 5623 5622 5620 5619 5618 5618 5618 5618
5682 5680 5677 5675 5674 5673 5672 5670 5668 5666 5664 5663 5661 5659 5657 5655 5654 5652 5651 5649 5647 5645 5643 5641 5638 5636 5633 5629 5627 5624 5621 5619 5616 5614 5612 5611 5609 5608 5608 5607 5607 5607
5672 5670 5668 5667 5667 5665 5663 5661 5659 5657 5655 5653 5651 5649 5647 5646 5644 5643 5641 5639 5637 5636 5634 5631 5629 5626 5623 5620 5617 5614 5611 5608 5606 5604 5602 5601 5600 5599 5598 5598 5598 5598
5663 5661 5660 5659 5658 5656 5654 5652 5649 5647 5645 5643 5641 5639 5637 5636 5634 5633 5631 5629 5627 5626 5624 5622 5619 5616 5613 5610 5607 5604 5600 5597 5596 5595 5593 5592 5591 5590 5589 5589 5589 5589
5654 5653 5651 5650 5648 5646 5644 5642 5640 5638 5636 5634 5632 5630 5628 5626 5624 5622 5621 5619 5617 5616 5614 5611 5609 5606 5603 5599 5596 5593 5589 5587 5586 5585 5584 5583 5582 5581 5580 5580 5579 5579
5646 5644 5643 5641 5639 5638 5636 5634 5632 5630 5628 5625 5623 5620 5618 5616 5614 5612 5610 5608 5606 5605 5603 5601 5598 5595 5591 5588 5585 5582 5580 5577 5576 5576 5574 5574 5573 5572 5571 5570 5569 5568
5637 5636 5634 5632 5631 5629 5628 5625 5623 5621 5618 5616 5613 5610 5608 5606 5604 5602 5600 5598 5596 5594 5592 5590 5587 5583 5579 5577 5574 5572 5570 5568 5567 5565 5564 5564 5563 5562 5561 5560 5560 5559
5629 5628 5626 5624 5622 5620 5618 5616 5613 5611 5608 5605 5602 5600 5598 5596 5595 5593 5591 5589 5586 5583 5581 5579 5576 5572 5569 5567 5565 5562 5560 5558 5556 5555 5555 5555 5554 5554 5554 5553 5553 5553
5622 5620 5618 5616 5614 5611 5609 5606 5603 5601 5597 5595 5593 5591 5589 5587 5585 5583 5580 5578 5575 5572 5569 5567 5565 5562 5559 5558 5555 5552 5550 5548 5547 5546 5546 5547 5547 5547 5547 5547 5548 5548
5613 5612 5610 5607 5605 5602 5599 5597 5594 5591 5589 5586 5584 5583 5581 5578 5576 5573 5570 5567 5564 5561 5558 5556 5555 5553 5551 5548 5546 5542 5540 5539 5538 5538 5538 5538 5538 5538 5539 5540 5541 5541
5605 5603 5601 5598 5596 5593 5590 5588 5585 5583 5581 5579 5576 5574 5572 5569 5566 5563 5560 5557 5553 5551 5549 5547 5546 5545 5541 5539 5536 5533 5531 5530 5529 5528 5529 5528 5528 5528 5529 5530 5530 5532
5597 5594 5592 5589 5587 5584 5582 5580 5578 5576 5573 5570 5567 5564 5561 5558 5555 5552 5549 5547 5544 5542 5540 5538 5537 5535 5532 5529 5527 5524 5522 5520 5519 5519 5519 5518 5517 5517 5517 5518 5519 5520
Wind_Speed
41 41 41 42 42 42 43 43 43 44 44 45 46 47 48 49 50 51 51 51 51 52 52 53 53 53 53 52 53 54 54 53 53 52 52 50 50 49 48 49 49 49
41 41 42 42 43 43 43 44 44 45 46 47 48 49 50 51 52 52 53 53 53 54 54 55 55 55 54 54 56 56 56 56 56 56 55 54 54 53 52 51 51 51
41 41 42 43 43 44 44 44 45 46 48 49 50 52 53 53 53 54 54 55 55 55 56 56 56 56 56 57 58 58 58 58 59 59 59 58 57 57 56 55 54 53
41 41 42 43 44 45 45 46 48 49 50 52 53 54 55 56 56 56 56 56 56 57 57 57 57 57 58 58 59 59 59 60 60 60 60 59 59 60 59 59 57 56
42 43 43 45 45 46 48 49 50 51 53 54 56 57 57 57 57 56 56 57 58 58 58 58 58 59 59 59 59 60 61 61 61 61 61 60 59 60 60 60 60 58
44 44 45 46 48 49 50 51 53 54 56 57 58 58 58 57 57 57 58 59 59 59 59 59 59 59 60 60 60 60 61 61 61 61 61 60 60 59 60 60 60 60
45 45 46 47 50 52 53 54 56 57 58 58 58 57 57 57 58 59 60 60 60 59 59 60 59 59 59 60 60 61 61 61 61 61 61 60 60 60 61 61 61 61
46 46 47 48 50 52 54 56 57 58 58 58 57 57 58 58 59 60 60 60 59 59 59 59 59 59 59 60 61 62 61 61 60 60 61 61 62 62 63 63 63 62
49 49 50 51 52 53 54 56 58 58 58 58 58 58 58 59 60 59 59 58 58 58 58 59 59 60 61 62 62 61 61 60 61 62 63 63 64 65 65 65 65 64
54 55 54 54 54 54 56 57 57 57 57 56 56 57 58 59 58 57 56 56 57 58 59 59 60 61 62 62 61 60 61 62 63 65 66 67 67 67 67 67 66 66
54 54 54 54 54 54 55 56 56 55 55 56 57 59 59 58 56 56 56 57 58 59 60 60 61 61 61 61 61 61 63 65 67 69 70 71 70 70 70 69 69 68
53 52 53 53 53 54 55 56 56 56 57 58 59 59 57 56 56 57 58 59 60 60 60 60 60 60 60 61 62 64 66 69 71 73 73 73 73 72 71 71 70 69
55 54 54 54 56 58 59 58 57 57 58 59 58 57 56 57 59 60 60 59 59 58 58 59 59 60 61 62 64 67 70 73 74 75 75 74 73 71 70 69 69 68
57 57 57 59 60 60 59 58 57 58 58 58 57 57 59 61 61 60 59 58 57 56 57 59 60 61 63 65 68 71 73 75 75 75 74 73 71 70 68 67 65 65
59 59 61 62 61 60 59 58 58 59 59 59 59 60 61 61 59 57 57 57 57 58 59 61 62 63 65 68 71 73 75 75 75 74 72 71 69 68 65 63 61 60
61 61 62 61 60 59 60 60 60 60 61 61 61 62 61 60 58 57 58 59 59 60 61 62 63 65 69 72 73 74 74 74 73 72 70 68 66 63 60 58 57 56
63 64 62 60 59 59 60 61 61 62 62 62 62 62 61 60 59 60 61 62 61 61 62 63 65 68 72 73 74 73 73 71 70 67 65 62 59 58 56 56 55 55
62 62 60 59 60 61 61 61 61 61 62 62 62 62 62 61 62 63 63 63 62 62 63 65 68 71 73 73 72 71 70 67 64 61 58 56 55 55 55 55 56 56
57 59 60 60 61 61 60 60 60 61 62 63 64 65 64 64 64 65 64 63 63 63 65 67 69 71 72 71 70 68 65 61 58 56 55 54 55 56 57 58 59 59
58 60 61 60 59 60 61 62 62 64 65 66 66 66 66 65 65 64 63 62 63 65 66 68 69 70 70 69 66 62 59 56 55 54 55 56 57 57 57 57 57 57
60 61 61 60 61 63 65 65 65 66 67 67 67 66 65 63 62 61 61 62 64 66 67 68 69 69 68 65 61 57 55 55 55 56 56 55 53 51 49 48 48 47
59 61 62 64 66 68 68 67 67 68 68 67 64 62 60 58 58 59 61 63 65 67 68 68 67 66 64 60 56 55 55 56 56 56 53 49 46 44 43 43 43 41
60 62 65 67 68 68 68 68 67 66 63 60 57 55 55 57 58 61 63 65 67 68 67 65 63 60 58 55 55 55 56 57 55 53 49 46 44 44 43 42 42 41
63 66 68 69 69 69 68 66 62 58 54 53 53 55 56 59 61 63 65 67 66 66 64 61 58 55 55 55 56 56 56 54 52 50 48 48 48 47 47 46 45 45
68 70 71 70 69 67 63 58 53 51 51 53 56 58 59 62 63 64 64 64 63 61 59 57 54 53 55 56 55 55 53 52 51 51 50 51 52 52 51 50 49 49
72 72 71 68 65 60 54 50 50 52 54 57 58 60 62 62 63 63 62 61 59 57 55 54 54 54 55 54 53 52 52 53 54 54 53 54 54 54 53 53 52 51
Wind_Direction
280 279 279 279 279 280 280 280 281 282 283 284 284 285 285 286 287 288 289 290 290 290 291 291 292 293 294 294 292 290 290 290 289 288 286 286 286 286 286 286 285 285
281 280 280 280 280 280 280 280 281 282 282 283 283 284 284 285 286 287 288 288 289 289 290 291 292 293 293 292 290 290 290 290 289 288 287 286 286 285 285 285 285 284
282 280 280 279 279 279 279 279 280 281 281 282 283 283 284 284 284 285 286 287 288 289 290 291 292 292 291 289 289 290 290 289 289 288 287 286 286 285 285 285 285 285
280 279 278 278 277 277 278 278 279 280 281 282 282 283 283 284 285 286 287 288 289 290 290 291 290 289 288 288 289 289 288 288 287 287 286 286 286 285 284 284 284 285
279 278 278 277 277 277 277 278 279 280 281 282 283 284 285 286 287 288 289 289 290 290 290 290 289 288 288 288 288 287 287 287 286 286 286 286 286 285 285 284 283 283
280 278 277 277 277 277 278 279 280 281 282 284 285 286 287 287 288 288 289 289 290 290 289 288 287 287 288 287 287 287 286 286 286 286 286 286 286 286 285 284 283 283
280 278 277 278 279 279 279 280 280 281 283 284 285 286 286 287 287 288 289 289 289 289 288 288 288 288 288 288 287 287 286 286 287 287 287 287 287 287 286 285 284 282
280 278 279 282 282 281 279 279 280 281 283 285 286 286 287 287 288 288 288 289 289 289 289 288 288 288 288 287 287 287 287 287 287 288 288 288 288 288 287 286 284 282
281 281 282 283 282 281 280 280 281 283 285 286 286 287 288 288 288 288 289 289 290 289 289 288 288 288 288 287 287 287 288 288 289 289 289 289 289 288 286 285 283 281
283 283 283 282 283 283 284 284 285 286 287 287 288 288 289 288 288 289 290 290 290 289 288 288 288 288 287 287 287 287 288 289 289 290 289 288 287 286 284 283 280 278
282 282 283 284 285 285 285 285 286 287 287 288 289 289 288 288 288 290 290 290 289 289 288 288 287 287 287 287 287 287 288 289 289 289 288 287 286 284 282 280 278 276
281 283 285 286 285 285 285 285 286 286 287 288 288 287 286 287 289 290 291 290 289 288 287 286 285 285 286 286 287 287 287 287 288 287 287 286 284 283 281 279 278 276
282 285 287 286 286 286 286 286 287 288 288 288 287 285 286 288 290 291 291 289 288 286 284 284 284 284 285 285 285 285 285 286 286 286 285 284 283 282 281 280 279 277
285 287 287 286 285 285 285 287 288 289 289 288 286 285 286 289 290 290 289 288 286 284 282 282 283 283 284 283 283 284 285 285 286 285 285 285 284 283 283 281 279 278
287 287 286 285 284 285 286 288 289 288 288 287 286 286 288 290 290 289 288 287 285 283 282 282 283 283 283 283 283 284 285 286 286 286 286 286 285 284 283 281 279 276
288 287 286 285 286 287 289 290 289 289 289 289 288 288 289 290 289 288 288 287 284 282 282 282 282 282 282 283 284 285 285 286 286 287 286 286 285 283 281 279 276 273
288 287 286 287 289 291 291 291 291 291 291 290 290 290 290 290 289 288 288 286 283 282 282 281 281 281 281 282 283 284 286 286 286 285 284 283 282 280 278 275 273 271
286 285 286 289 292 293 293 292 292 292 292 292 292 292 291 289 288 288 287 284 283 282 281 280 280 280 281 282 284 286 286 286 284 283 281 280 278 276 275 273 271 269
285 287 290 293 294 293 293 292 293 293 293 293 293 292 290 289 288 287 286 284 282 281 280 280 281 281 282 284 286 287 285 283 282 281 279 278 276 275 275 273 271 269
287 290 292 292 293 293 293 293 292 292 293 293 292 291 289 288 287 286 285 283 282 281 281 282 282 283 285 286 287 286 283 281 280 279 279 278 278 278 277 275 274 271
290 292 292 292 294 295 295 294 293 293 292 292 291 290 288 286 285 285 283 283 282 282 282 283 283 285 287 287 286 284 282 281 281 281 281 281 280 278 276 275 274 271
292 292 293 293 295 296 296 295 294 294 293 292 290 288 287 286 285 285 284 284 283 283 283 284 285 287 287 286 284 283 283 283 282 282 281 279 277 276 275 274 272 266
292 293 294 295 296 296 296 296 295 293 292 290 288 287 287 287 287 286 285 284 283 283 284 286 287 287 285 284 283 283 283 282 282 281 279 277 275 274 273 272 269 261
294 296 297 297 297 297 297 296 294 291 289 287 287 288 289 288 286 285 284 283 284 285 287 287 287 285 283 283 283 282 282 282 281 279 277 276 275 275 273 271 267 259
297 299 299 298 298 297 296 293 290 288 287 288 289 289 287 285 284 284 284 286 287 287 287 286 285 284 283 283 282 282 283 282 280 278 278 278 278 277 276 272 267 261
297 299 299 299 297 295 291 289 288 288 288 289 288 287 285 286 287 289 290 289 288 287 286 285 284 284 283 283 283 283 283 282 281 280 281 281 279 278 277 274 270 264